Location: Drocourt
(49.0571°N, 1.7669°E)
Time: 14:55:53
(UTC+00:00)

Vanguard 1 Rocket - Pass Details

Date: 22 April 2024
Orbit: 651 x 4220 km, 34.3° (Epoch: 19 May)

Event Time Altitude Azimuth Distance (km) Brightness Sun altitude
Rises 21:19:05 0° 252° (WSW) 3,572 10.7 -19.8°
Reaches altitude 10° 21:21:42 10° 238° (WSW) 2,916 10.1 -20.1°
Maximum altitude 21:27:21 25° 186° (S) 2,640 9.3 -20.7°
Enters shadow 21:28:44 24° 173° (S) 2,840 9.4 -20.8°
